Ottumwa, IA

11:37 AM CDT on June 27, 2017 (GMT -0500)
Ottumwa Industrial

Weather History for KOTM - September, 2013

Change the Weather History Date:

Tuesday, September 24, 2013

  Actual Average Record
Temperature  
Mean Temperature 64 °F 61 °F  
Max Temperature 78 °F 73 °F 91 °F (1984)
Min Temperature 49 °F 49 °F 32 °F (1942)
Degree Days  
Heating Degree Days 1 6  
Month to date heating degree days 48 68  
Since 1 July heating degree days 64 79  
Cooling Degree Days 0 2  
Month to date cooling degree days 151 86  
Year to date cooling degree days 966 920  
Growing Degree Days 12 (Base 50)    
Moisture  
Dew Point 52 °F    
Average Humidity 68    
Maximum Humidity 93    
Minimum Humidity 43    
Precipitation  
Precipitation 0.00 in 0.12 in 0.93 in (1973)
Month to date precipitation 0.68 3.12  
Year to date precipitation 29.22 29.82  
Sea Level Pressure  
Sea Level Pressure 29.87 in    
Wind  
Wind Speed 10 mph (East)    
Max Wind Speed 20 mph    
Max Gust Speed 26 mph    
Visibility 10 miles    
Events      
T = Trace of Precipitation, MM = Missing Value Source: NWS Daily Summary

Daily Weather History Graph

Daily Weather History Graph

Search for Another Location

Airport or City:

Trip Planner

Search our weather history database for the weather conditions in past years. The results will help you decide how hot, cold, wet, or windy it might be!

Date:

Astronomy

Sep. 24, 2013 Rise Set
Actual Time 6:59 AM CDT 7:03 PM CDT
Civil Twilight 6:32 AM CDT 7:30 PM CDT
Nautical Twilight 5:59 AM CDT 8:02 PM CDT
Astronomical Twilight 5:27 AM CDT 8:35 PM CDT
Moon 10:18 PM CDT (9/24) 12:17 PM CDT (9/24)
Length of Visible Light 12h 58m
Length of Day
12h 03m
Waning Gibbous, 73% of the Moon is Illuminated
Sep 24
Waning Gibbous
Sep 26
Last Quarter
Oct 4
New
Oct 11
First Quarter
Oct 18
Full

Hourly Weather History & Observations

Time (CDT) Temp. Dew Point Humidity Pressure Visibility Wind Dir Wind Speed Gust Speed Precip Events Conditions
12:53 AM 57.0 °F 48.9 °F 74% 29.91 in 10.0 mi SE 8.1 mph - N/A   Clear
1:53 AM 55.9 °F 48.0 °F 75% 29.90 in 10.0 mi ESE 9.2 mph - N/A   Clear
2:53 AM 53.1 °F 46.9 °F 80% 29.89 in 10.0 mi ESE 6.9 mph - N/A   Clear
3:53 AM 50.0 °F 46.0 °F 86% 29.89 in 10.0 mi ESE 6.9 mph - N/A   Clear
4:53 AM 51.1 °F 46.9 °F 86% 29.89 in 10.0 mi East 6.9 mph - N/A   Clear
5:53 AM 48.9 °F 46.0 °F 90% 29.88 in 10.0 mi ESE 5.8 mph - N/A   Clear
6:53 AM 50.0 °F 46.9 °F 89% 29.89 in 10.0 mi East 6.9 mph - N/A   Clear
7:53 AM 51.1 °F 48.0 °F 89% 29.89 in 10.0 mi ESE 9.2 mph - N/A   Clear
8:53 AM 57.9 °F 51.1 °F 78% 29.88 in 10.0 mi SE 11.5 mph - N/A   Clear
9:53 AM 63.0 °F 53.1 °F 70% 29.88 in 10.0 mi ESE 10.4 mph - N/A   Clear
10:53 AM - - N/A% 29.87 in - North - - N/A   Mostly Cloudy
11:53 AM 71.1 °F 55.0 °F 57% 29.86 in 10.0 mi ESE 11.5 mph - N/A   Partly Cloudy
12:53 PM 73.9 °F 55.9 °F 53% 29.84 in 10.0 mi East 15.0 mph - N/A   Scattered Clouds
1:53 PM 75.9 °F 55.0 °F 48% 29.85 in 10.0 mi East 16.1 mph - N/A   Scattered Clouds
2:53 PM 75.9 °F 55.0 °F 48% 29.84 in 10.0 mi East 16.1 mph - N/A   Partly Cloudy
3:53 PM 77.0 °F 53.1 °F 43% 29.83 in 10.0 mi East 13.8 mph - N/A   Clear
4:53 PM 75.0 °F 53.1 °F 46% 29.83 in 10.0 mi East 13.8 mph - N/A   Clear
5:53 PM 75.0 °F 55.9 °F 51% 29.84 in 10.0 mi ESE 12.7 mph - N/A   Clear
6:53 PM 71.1 °F 55.9 °F 59% 29.85 in 10.0 mi East 5.8 mph - N/A   Clear
7:53 PM 66.9 °F 55.9 °F 68% 29.86 in 10.0 mi ENE 6.9 mph - N/A   Partly Cloudy
8:53 PM 64.0 °F 55.9 °F 75% 29.87 in 10.0 mi NE 6.9 mph - N/A   Clear
9:53 PM 64.0 °F 55.0 °F 73% 29.88 in 10.0 mi NE 8.1 mph - N/A   Overcast
10:53 PM 62.1 °F 54.0 °F 75% 29.89 in 10.0 mi ENE 5.8 mph - N/A   Clear
11:53 PM 60.1 °F 53.1 °F 78% 29.88 in 10.0 mi ENE 8.1 mph - N/A   Clear